FW5282 Weather Reports


Display with metric or nautical units.
time (UTC)temp
F
wind
direction
speed
MPH
gust
MPH
rain 1hr
in
rain 24hr
in
rain mn
in
humidity
%
barometer
mb
20260902212044 65 297 0.0 0.0 0.00 0.00 0.00 68 1020.5
20260902211602 65 297 0.0 0.0 0.00 0.00 0.00 67 1020.4
20260902211035 65 297 0.0 0.0 0.00 0.00 0.00 66 1020.4
20260902210531 65 297 0.0 0.0 0.00 0.00 0.00 66 1020.4
20260902210100 66 297 0.0 0.0 0.00 0.00 0.00 66 1020.4
20260902205555 66 297 0.0 0.0 0.00 0.00 0.00 65 1020.4
20260902205104 66 297 0.0 0.0 0.00 0.00 0.00 65 1020.5
20260902204538 66 297 0.0 1.0 0.00 0.00 0.00 65 1020.5
20260902204029 66 297 0.0 1.0 0.00 0.00 0.00 64 1020.4
20260902203542 67 297 0.0 1.0 0.00 0.00 0.00 64 1020.4
20260902203040 67 293 0.0 1.0 0.00 0.00 0.00 64 1020.5
20260902202532 67 288 0.0 0.0 0.00 0.00 0.00 63 1020.4
20260902202045 67 288 0.0 0.0 0.00 0.00 0.00 62 1020.4
20260902201539 68 288 0.0 0.0 0.00 0.00 0.00 61 1020.4
20260902201036 68 288 0.0 0.0 0.00 0.00 0.00 61 1020.4
20260902200553 68 288 0.0 0.0 0.00 0.00 0.00 61 1020.4
20260902200104 68 288 0.0 1.0 0.00 0.00 0.00 60 1020.4
20260902195540 68 288 0.0 1.0 0.00 0.00 0.00 60 1020.4
20260902195030 69 288 0.0 1.0 0.00 0.00 0.00 59 1020.4
20260902194544 69 289 0.0 1.0 0.00 0.00 0.00 58 1020.3
20260902194036 69 287 0.0 1.0 0.00 0.00 0.00 58 1020.3
20260902193531 69 293 0.0 1.0 0.00 0.00 0.00 57 1020.2
20260902193046 70 296 0.0 1.0 0.00 0.00 0.00 56 1020.2
20260902192542 70 296 0.0 1.0 0.00 0.00 0.00 56 1020.2
20260902192039 70 304 0.0 1.0 0.00 0.00 0.00 55 1020.2
20260902191553 71 304 0.0 1.0 0.00 0.00 0.00 55 1020.1
20260902191105 71 304 0.0 1.0 0.00 0.00 0.00 54 1020.0
20260902190539 72 288 0.0 1.0 0.00 0.00 0.00 53 1020.0
20260902190028 72 290 0.0 1.0 0.00 0.00 0.00 52 1019.9
20260902185610 73 290 0.0 1.0 0.00 0.00 0.00 52 1019.8
20260902185043 73 290 0.0 1.0 0.00 0.00 0.00 51 1019.8
20260902184555 74 290 0.0 1.0 0.00 0.00 0.00 50 1019.8
20260902184028 74 289 0.0 1.0 0.00 0.00 0.00 50 1019.7
20260902183545 74 290 0.0 1.0 0.00 0.00 0.00 49 1019.7
20260902183037 75 293 0.0 1.0 0.00 0.00 0.00 48 1019.7
20260902182531 75 290 0.0 1.0 0.00 0.00 0.00 48 1019.6
20260902182034 75 287 0.0 1.0 0.00 0.00 0.00 46 1019.6
20260902181541 76 284 1.0 1.0 0.00 0.00 0.00 46 1019.7
20260902181039 76 287 0.0 2.0 0.00 0.00 0.00 46 1019.7
20260902180537 76 287 0.0 1.0 0.00 0.00 0.00 45 1019.6
20260902180034 76 277 0.0 4.0 0.00 0.00 0.00 45 1019.6
20260902175543 77 301 1.0 4.0 0.00 0.00 0.00 45 1019.5
20260902175052 77 303 1.0 4.0 0.00 0.00 0.00 44 1019.5
20260902174548 77 306 1.0 5.0 0.00 0.00 0.00 43 1019.6
20260902174038 77 283 2.0 6.0 0.00 0.00 0.00 44 1019.5
20260902173554 78 305 1.0 6.0 0.00 0.00 0.00 43 1019.5
20260902173034 78 268 1.0 7.0 0.00 0.00 0.00 43 1019.5
20260902172553 79 276 1.0 5.0 0.00 0.00 0.00 41 1019.5
20260902172029 79 304 1.0 4.0 0.00 0.00 0.00 41 1019.4
20260902171530 80 278 1.0 5.0 0.00 0.00 0.00 41 1019.4
20260902171042 80 320 1.0 8.0 0.00 0.00 0.00 40 1019.4
20260902170539 80 269 2.0 8.0 0.00 0.00 0.00 40 1019.4
20260902170031 80 319 2.0 8.0 0.00 0.00 0.00 39 1019.3
20260902165552 81 323 4.0 11.0 0.00 0.00 0.00 39 1019.3
20260902165108 82 301 4.0 11.0 0.00 0.00 0.00 38 1019.3
20260902164529 82 32 0.0 4.0 0.00 0.00 0.00 40 1019.3
20260902164028 81 196 0.0 7.0 0.00 0.00 0.00 40 1019.3
20260902163606 82 296 2.0 9.0 0.00 0.00 0.00 39 1019.3
20260902163028 82 317 4.0 9.0 0.00 0.00 0.00 40 1019.3
20260902162545 82 306 2.0 9.0 0.00 0.00 0.00 39 1019.3
20260902162041 82 327 4.0 10.0 0.00 0.00 0.00 38 1019.3
20260902161532 82 290 4.0 10.0 0.00 0.00 0.00 39 1019.4
20260902161045 82 290 1.0 5.0 0.00 0.00 0.00 38 1019.4
20260902160533 82 315 2.0 10.0 0.00 0.00 0.00 37 1019.5
20260902160041 82 307 4.0 10.0 0.00 0.00 0.00 38 1019.5
20260902155558 82 319 1.0 8.0 0.00 0.00 0.00 38 1019.6
20260902155034 82 264 3.0 10.0 0.00 0.00 0.00 39 1019.6
20260902154555 83 278 5.0 10.0 0.00 0.00 0.00 38 1019.6
20260902154044 83 294 3.0 9.0 0.00 0.00 0.00 38 1019.6
20260902153536 83 264 3.0 11.0 0.00 0.00 0.00 38 1019.6
20260902153035 84 290 3.0 11.0 0.00 0.00 0.00 37 1019.5
20260902152528 84 268 3.0 8.0 0.00 0.00 0.00 38 1019.5
20260902152041 84 306 4.0 7.0 0.00 0.00 0.00 38 1019.5
20260902151532 83 319 1.0 4.0 0.00 0.00 0.00 38 1019.6
20260902151031 83 78 0.0 6.0 0.00 0.00 0.00 39 1019.6
20260902150542 83 229 1.0 6.0 0.00 0.00 0.00 37 1019.7
20260902150029 83 316 1.0 9.0 0.00 0.00 0.00 37 1019.7
20260902145545 82 338 4.0 9.0 0.00 0.00 0.00 39 1019.8
20260902145042 82 81 1.0 6.0 0.00 0.00 0.00 40 1019.8
20260902144537 83 327 2.0 6.0 0.00 0.00 0.00 40 1019.7
20260902144031 83 23 2.0 10.0 0.00 0.00 0.00 40 1019.7
20260902143552 83 293 2.0 10.0 0.00 0.00 0.00 39 1019.8
20260902143032 83 350 3.0 11.0 0.00 0.00 0.00 41 1019.8
20260902142539 82 355 4.0 14.0 0.00 0.00 0.00 41 1019.8
20260902142028 82 311 4.0 14.0 0.00 0.00 0.00 42 1019.8
20260902141546 81 193 1.0 9.0 0.00 0.00 0.00 42 1019.9
20260902141042 81 347 2.0 5.0 0.00 0.00 0.00 42 1019.9
20260902140554 80 53 2.0 5.0 0.00 0.00 0.00 43 1020.0
20260902140045 79 55 2.0 9.0 0.00 0.00 0.00 43 1019.9
20260902135534 79 33 4.0 9.0 0.00 0.00 0.00 44 1020.1
20260902135031 79 5 1.0 6.0 0.00 0.00 0.00 43 1020.1
20260902134543 79 76 2.0 6.0 0.00 0.00 0.00 43 1020.1
20260902134034 79 33 3.0 6.0 0.00 0.00 0.00 43 1020.1
20260902133530 80 52 2.0 7.0 0.00 0.00 0.00 43 1020.2
20260902133046 80 60 4.0 7.0 0.00 0.00 0.00 42 1020.2
20260902132539 80 351 1.0 6.0 0.00 0.00 0.00 42 1020.2
20260902132045 80 341 1.0 3.0 0.00 0.00 0.00 45 1020.3
20260902131602 79 196 1.0 5.0 0.00 0.00 0.00 45 1020.3
20260902131035 79 17 2.0 9.0 0.00 0.00 0.00 43 1020.4
20260902130553 80 13 3.0 9.0 0.00 0.00 0.00 43 1020.4
20260902130043 80 322 2.0 5.0 0.00 0.00 0.00 43 1020.4
20260902125535 80 297 3.0 8.0 0.00 0.00 0.00 43 1020.5
20260902125027 79 309 0.0 13.0 0.00 0.00 0.00 44 1020.5
20260902124600 79 194 1.0 13.0 0.00 0.00 0.00 44 1020.5
20260902124031 80 49 1.0 5.0 0.00 0.00 0.00 42 1020.6
20260902123543 79 5 2.0 4.0 0.00 0.00 0.00 44 1020.6
20260902123042 79 153 1.0 4.0 0.00 0.00 0.00 46 1020.6
20260902122533 79 349 1.0 8.0 0.00 0.00 0.00 44 1020.6
20260902122042 78 296 1.0 8.0 0.00 0.00 0.00 47 1020.6
20260902121533 77 323 1.0 4.0 0.00 0.00 0.00 45 1020.6
20260902121043 77 46 1.0 8.0 0.00 0.00 0.00 46 1020.6
20260902120539 77 46 2.0 8.0 0.00 0.00 0.00 46 1020.6
20260902120043 77 49 1.0 4.0 0.00 0.00 0.00 46 1020.7
20260902115535 78 36 1.0 4.0 0.00 0.00 0.00 46 1020.7
20260902115033 77 10 1.0 3.0 0.00 0.00 0.00 46 1020.8
20260902114539 77 26 0.0 6.0 0.00 0.00 0.00 48 1020.9
20260902114034 78 286 3.0 6.0 0.00 0.00 0.00 45 1020.9
20260902113545 78 13 2.0 6.0 0.00 0.00 0.00 46 1020.9
20260902113045 77 279 2.0 5.0 0.00 0.00 0.00 47 1020.9
20260902112543 76 284 2.0 5.0 0.00 0.00 0.00 49 1021.0
20260902112034 76 123 1.0 3.0 0.00 0.00 0.00 52 1021.0
20260902111601 75 55 1.0 3.0 0.00 0.00 0.00 53 1021.1
20260902111035 75 20 1.0 6.0 0.00 0.00 0.00 51 1021.0
20260902110545 75 19 2.0 6.0 0.00 0.00 0.00 50 1021.1
20260902110036 75 360 2.0 5.0 0.00 0.00 0.00 51 1021.2
20260902105528 76 350 2.0 5.0 0.00 0.00 0.00 50 1021.2
20260902105045 76 5 0.0 3.0 0.00 0.00 0.00 52 1021.2
20260902104538 76 223 1.0 5.0 0.00 0.00 0.00 51 1021.1
20260902104027 76 214 2.0 5.0 0.00 0.00 0.00 51 1021.3
20260902103538 75 360 1.0 5.0 0.00 0.00 0.00 53 1021.3
20260902103029 74 5 1.0 5.0 0.00 0.00 0.00 53 1021.3
20260902102546 75 13 1.0 5.0 0.00 0.00 0.00 52 1021.4
20260902102040 76 16 2.0 5.0 0.00 0.00 0.00 51 1021.4
20260902101536 76 328 0.0 4.0 0.00 0.00 0.00 52 1021.3
20260902101056 75 96 1.0 4.0 0.00 0.00 0.00 52 1021.3
20260902100545 75 171 0.0 2.0 0.00 0.00 0.00 54 1021.3
20260902100035 74 40 1.0 3.0 0.00 0.00 0.00 53 1021.3
20260902095546 75 22 1.0 3.0 0.00 0.00 0.00 53 1021.3
20260902095040 74 30 0.0 2.0 0.00 0.00 0.00 56 1021.3
20260902094535 74 333 0.0 1.0 0.00 0.00 0.00 56 1021.3
20260902094026 73 46 0.0 3.0 0.00 0.00 0.00 57 1021.3
20260902093536 73 75 0.0 2.0 0.00 0.00 0.00 58 1021.3
20260902093104 72 48 0.0 2.0 0.00 0.00 0.00 59 1021.3
20260902092533 72 9 1.0 3.0 0.00 0.00 0.00 59 1021.2
20260902092028 72 5 0.0 3.0 0.00 0.00 0.00 59 1021.2
20260902091539 71 360 0.0 1.0 0.00 0.00 0.00 62 1021.2
20260902091033 70 31 1.0 2.0 0.00 0.00 0.00 62 1021.2
20260902090543 70 51 0.0 1.0 0.00 0.00 0.00 64 1021.3
20260902090026 70 47 0.0 3.0 0.00 0.00 0.00 64 1021.2
20260902085547 69 56 1.0 3.0 0.00 0.00 0.00 66 1021.3
20260902085046 69 40 1.0 2.0 0.00 0.00 0.00 66 1021.2
20260902084537 69 96 1.0 2.0 0.00 0.00 0.00 69 1021.2
20260902084049 68 43 0.0 1.0 0.00 0.00 0.00 67 1021.2
20260902083541 68 74 0.0 1.0 0.00 0.00 0.00 70 1021.1
20260902083031 67 11 1.0 2.0 0.00 0.00 0.00 70 1021.2
20260902082546 67 5 1.0 2.0 0.00 0.00 0.00 70 1021.2
20260902082041 67 350 1.0 2.0 0.00 0.00 0.00 70 1021.1
20260902081534 67 66 1.0 2.0 0.00 0.00 0.00 71 1021.1
20260902081045 66 32 0.0 1.0 0.00 0.00 0.00 72 1021.1
20260902080601 66 360 1.0 1.0 0.00 0.00 0.00 72 1021.0
20260902080044 66 46 0.0 1.0 0.00 0.00 0.00 73 1020.9
20260902075530 66 40 0.0 1.0 0.00 0.00 0.00 73 1020.9
20260902075040 65 56 0.0 1.0 0.00 0.00 0.00 75 1020.8
20260902074557 64 63 0.0 1.0 0.00 0.00 0.00 76 1020.9
20260902074051 64 40 0.0 1.0 0.00 0.00 0.00 76 1020.9
20260902073541 63 42 0.0 1.0 0.00 0.00 0.00 78 1020.8
20260902073033 63 44 1.0 1.0 0.00 0.00 0.00 79 1020.8
20260902072539 63 34 0.0 2.0 0.00 0.00 0.00 79 1020.7
20260902072028 62 28 1.0 2.0 0.00 0.00 0.00 79 1020.8
20260902071540 62 38 0.0 2.0 0.00 0.00 0.00 79 1020.6
20260902071032 62 32 1.0 2.0 0.00 0.00 0.00 81 1020.6
20260902070542 61 360 1.0 2.0 0.00 0.00 0.00 81 1020.6
20260902070045 61 26 1.0 2.0 0.00 0.00 0.00 81 1020.6
20260902065539 61 5 1.0 2.0 0.00 0.00 0.00 80 1020.6
20260902065034 61 9 1.0 2.0 0.00 0.00 0.00 81 1020.6
20260902064530 61 324 1.0 2.0 0.00 0.00 0.00 81 1020.6
20260902064045 60 351 1.0 1.0 0.00 0.00 0.00 82 1020.5
20260902063539 60 350 0.0 1.0 0.00 0.00 0.00 83 1020.5
20260902063031 59 10 1.0 1.0 0.00 0.00 0.00 84 1020.4
20260902062546 58 5 0.0 1.0 0.00 0.00 0.00 86 1020.4
20260902062033 58 355 0.0 1.0 0.00 0.00 0.00 86 1020.5
20260902061539 57 11 0.0 1.0 0.00 0.00 0.00 88 1020.5
20260902061032 56 350 0.0 1.0 0.00 0.00 0.00 88 1020.4
20260902060546 56 332 0.0 1.0 0.00 0.00 0.00 87 1020.5
20260902060035 56 355 0.0 1.0 0.00 0.00 0.00 88 1020.4
20260902055548 56 360 0.0 1.0 0.00 0.00 0.00 88 1020.3
20260902055046 56 350 0.0 1.0 0.00 0.00 0.00 89 1020.3
20260902054533 56 344 1.0 1.0 0.00 0.00 0.00 89 1020.4
20260902054052 56 343 0.0 1.0 0.00 0.00 0.00 89 1020.3
20260902053545 56 343 0.0 1.0 0.00 0.00 0.00 88 1020.3
20260902053038 56 347 0.0 2.0 0.00 0.00 0.00 89 1020.4
20260902052550 56 349 1.0 1.0 0.00 0.00 0.00 89 1020.3
20260902052045 56 344 0.0 1.0 0.00 0.00 0.00 89 1020.3
20260902051043 56 326 1.0 2.0 0.00 0.00 0.00 88 1020.2
20260902050539 56 339 0.0 1.0 0.00 0.00 0.00 88 1020.1
20260902050030 56 340 0.0 1.0 0.00 0.00 0.00 88 1020.2
20260902045544 56 329 0.0 1.0 0.00 0.00 0.00 87 1020.1
20260902045033 56 327 0.0 1.0 0.00 0.00 0.00 86 1020.1
20260902044531 56 331 0.0 1.0 0.00 0.00 0.00 86 1020.0
20260902044102 56 342 0.0 1.0 0.00 0.00 0.00 85 1020.0
20260902043602 57 333 0.0 1.0 0.00 0.00 0.00 85 1019.9
20260902043039 57 332 0.0 1.0 0.00 0.00 0.00 85 1019.9
20260902042536 57 355 0.0 1.0 0.00 0.00 0.00 85 1019.9
20260902042033 57 344 0.0 1.0 0.00 0.00 0.00 85 1020.0
20260902041546 57 337 0.0 1.0 0.00 0.00 0.00 85 1020.0
20260902041036 57 350 0.0 1.0 0.00 0.00 0.00 85 1020.1
20260902040557 57 338 0.0 2.0 0.00 0.00 0.00 85 1020.1
20260902040049 57 336 0.0 2.0 0.00 0.00 0.00 85 1020.1
20260902035551 57 340 0.0 1.0 0.00 0.00 0.00 85 1020.1
20260902035044 57 340 1.0 1.0 0.00 0.00 0.00 85 1020.1
20260902034541 57 336 0.0 1.0 0.00 0.00 0.00 84 1020.0
20260902034036 57 342 0.0 1.0 0.00 0.00 0.00 84 1019.9
20260902033529 57 335 0.0 2.0 0.00 0.00 0.00 84 1020.0
20260902033025 57 339 1.0 2.0 0.00 0.00 0.00 85 1020.1
20260902032542 57 344 1.0 4.0 0.00 0.00 0.00 85 1020.1
20260902032039 57 327 1.0 4.0 0.00 0.00 0.00 85 1020.1
20260902031537 57 334 1.0 2.0 0.00 0.00 0.00 85 1020.1
20260902031107 57 346 0.0 2.0 0.00 0.00 0.00 84 1019.9
20260902030541 57 331 0.0 2.0 0.00 0.00 0.00 84 1019.9
20260902030029 57 336 0.0 1.0 0.00 0.00 0.00 84 1019.8
20260902025551 57 341 0.0 1.0 0.00 0.00 0.00 84 1019.7
20260902025044 57 336 0.0 1.0 0.00 0.00 0.00 84 1019.8
20260902024536 57 333 0.0 1.0 0.00 0.00 0.00 83 1019.8
20260902024043 58 334 0.0 1.0 0.00 0.00 0.00 83 1019.8
20260902023540 58 338 0.0 1.0 0.00 0.00 0.00 84 1019.8
20260902023032 58 341 0.0 2.0 0.00 0.00 0.00 83 1019.8
20260902022532 58 338 0.0 2.0 0.00 0.00 0.00 83 1019.8
20260902022049 58 343 0.0 1.0 0.00 0.00 0.00 82 1019.8
20260902021542 58 341 0.0 1.0 0.00 0.00 0.00 83 1019.8
20260902021035 58 347 0.0 1.0 0.00 0.00 0.00 83 1019.8
20260902020554 58 348 0.0 1.0 0.00 0.00 0.00 83 1019.8
20260902020046 58 343 0.0 1.0 0.00 0.00 0.00 82 1019.9
20260902015600 58 345 0.0 1.0 0.00 0.00 0.00 82 1019.9
20260902015107 58 336 0.0 1.0 0.00 0.00 0.00 82 1020.0
20260902014539 58 345 0.0 1.0 0.00 0.00 0.00 82 1020.0
20260902014029 58 341 0.0 1.0 0.00 0.00 0.00 81 1019.9
20260902013547 58 340 0.0 1.0 0.00 0.00 0.00 80 1020.0
20260902013044 59 346 0.0 1.0 0.00 0.00 0.00 80 1020.0
20260902012534 59 346 0.0 1.0 0.00 0.00 0.00 79 1020.1
20260902012054 59 335 0.0 1.0 0.00 0.00 0.00 79 1020.1
20260902011534 59 360 0.0 1.0 0.00 0.00 0.00 78 1020.0
20260902011030 59 5 0.0 1.0 0.00 0.00 0.00 78 1020.1
20260902010541 60 11 0.0 1.0 0.00 0.00 0.00 78 1020.2
20260902010028 60 18 0.0 1.0 0.00 0.00 0.00 77 1020.1
20260902005540 60 15 0.0 1.0 0.00 0.00 0.00 77 1020.1
20260902005033 60 347 0.0 1.0 0.00 0.00 0.00 77 1020.3
20260902004545 60 336 0.0 1.0 0.00 0.00 0.00 76 1020.3
20260902004041 60 327 0.0 1.0 0.00 0.00 0.00 76 1020.3
20260902003537 61 349 0.0 1.0 0.00 0.00 0.00 75 1020.2
20260902003056 61 346 0.0 1.0 0.00 0.00 0.00 75 1020.2
20260902002533 61 336 0.0 1.0 0.00 0.00 0.00 74 1020.2
20260902002043 61 351 0.0 1.0 0.00 0.00 0.00 75 1020.1
20260902001540 61 355 0.0 2.0 0.00 0.00 0.00 74 1019.9
20260902001034 61 360 1.0 3.0 0.00 0.00 0.00 74 1020.0
20260902000551 61 346 1.0 1.0 0.00 0.00 0.00 74 1020.1
20260902000043 61 351 1.0 2.0 0.00 0.00 0.00 74 1020.1
20260901235545 61 355 1.0 2.0 0.00 0.00 0.00 74 1020.2
20260901235034 61 342 1.0 2.0 0.00 0.00 0.00 73 1020.0
20260901234530 61 360 0.0 1.0 0.00 0.00 0.00 73 1019.9
20260901234043 61 355 0.0 1.0 0.00 0.00 0.00 73 1019.9
20260901233536 62 355 0.0 1.0 0.00 0.00 0.00 73 1019.9
20260901233104 62 348 0.0 2.0 0.00 0.00 0.00 72 1019.9
20260901232535 62 329 1.0 2.0 0.00 0.00 0.00 72 1020.0
20260901232027 62 11 1.0 1.0 0.00 0.00 0.00 71 1019.9
20260901231601 62 355 1.0 1.0 0.00 0.00 0.00 71 1019.9
20260901231034 62 345 1.0 2.0 0.00 0.00 0.00 71 1020.0
20260901230530 62 9 1.0 2.0 0.00 0.00 0.00 72 1020.1
20260901230057 62 331 1.0 2.0 0.00 0.00 0.00 71 1020.2
20260901225530 62 336 0.0 2.0 0.00 0.00 0.00 71 1020.1
20260901225047 63 355 0.0 2.0 0.00 0.00 0.00 71 1020.1
20260901224535 63 329 0.0 2.0 0.00 0.00 0.00 70 1020.1
20260901224033 63 345 1.0 3.0 0.00 0.00 0.00 70 1020.1
20260901223548 63 330 1.0 3.0 0.00 0.00 0.00 70 1020.1
20260901223031 63 355 1.0 3.0 0.00 0.00 0.00 70 1020.1
20260901222545 63 336 1.0 5.0 0.00 0.00 0.00 70 1020.1
20260901222036 63 334 1.0 4.0 0.00 0.00 0.00 72 1020.0
20260901221531 62 343 1.0 4.0 0.00 0.00 0.00 73 1020.1
20260901221059 62 25 1.0 4.0 0.00 0.00 0.00 74 1020.1
20260901220530 61 355 1.0 4.0 0.00 0.00 0.00 75 1020.1
20260901220101 61 349 1.0 3.0 0.00 0.00 0.00 77 1020.1
20260901215557 61 345 1.0 3.0 0.00 0.00 0.00 78 1020.0
20260901215029 61 309 1.0 2.0 0.00 0.00 0.00 78 1019.9
20260901214546 62 315 0.0 2.0 0.00 0.00 0.00 78 1019.9
20260901214041 62 309 1.0 2.0 0.00 0.00 0.00 77 1019.9
20260901213533 63 309 1.0 2.0 0.00 0.00 0.00 76 1019.8
20260901213107 63 309 0.0 2.0 0.00 0.00 0.00 75 1019.7
20260901212537 63 309 1.0 2.0 0.00 0.00 0.00 75 1019.8